Location: Gro� Glienicke
(52.4675°N, 13.1079°E)
Time: 08:30:19
(UTC+00:00)

Cosmos 2123 Rocket - Pass Details

Date: 06 July 2020
Orbit: 960 x 993 km, 82.9° (Epoch: 04 August)

Event Time Altitude Azimuth Distance (km) Brightness Sun altitude
Rises 23:27:01 0° 350° (N) 3,675 8.7 -14.9°
Reaches altitude 10° 23:29:35 10° 354° (N) 2,720 7.7 -14.9°
Maximum altitude 23:35:46 65° 76° (ENE) 1,059 4.3 -14.8°
Enters shadow 23:40:47 16° 156° (SSE) 2,294 5.4 -14.7°
